map of GOV home
GOV - Airport
Location
City:  Gove, Northern Territory, Australia
Name:Nhulunbuy
ICAO:YPGV
IATA:GOV

Details
Type:Airport (Aerodrome, Airfield)
Latitude:12°16'10"S (-12.269443)
Longitude:136°49'06"E (136.818333)
Datum:WGS 1984
Elevation:205 ft (62 m)
Variation:3.88°E (WMM2015 magnetic declination)
-0.07° annual change
Runways:1
Longest:7244 × 148 ft (2208 × 45 m), paved

Time
Time Zone:UTC+9:30
Local Time:

Weather
METAR:YPGV 202100Z AUTO 00000KT 9999 // SCT017 SCT022 26/23 Q1012
TAF:YPGV 201921Z 2020/2108 VRB03KT 9999 SCT015
FM202300 09010KT 9999 SCT020 PROB30
TEMPO 2102/2108 VRB20G35KT 1000 TSRA BKN010 SCT020CB

Related Locations
Nearby:
Farthest:CAY: 11632 mi / 18720 km
Cayenne [Félix Eboué Airport (Rochambeau Airport)], GF

Find:

   beyond  
but within

Other Information
Maps:
NOTAMs:
Links:
Sources:

  
flag of Australia
flag of Northern Territory
  

Sectional Chart

Flight Planning
at skyvector.com

Satellite Image

Google Maps Satellite view

 

Copyright © 2004-2017 Karl L. Swartz. All rights reserved.
The Great Circle Mapper name and logo are trademarks of the Great Circle Mapper.
All other trademarks mentioned herein belong to their respective owners.
Please see credits for attibutions and further copyright information.

  Follow gcmap on Facebook Follow gcmap on Twitter Follow gcmap on Google+ GCmap on LinkedIn

hCard Microformat

Geo Microformat